TimeCDT,TemperatureF,Dew PointF,Humidity,Sea Level PressureIn,VisibilityMPH,Wind Direction,Wind SpeedMPH,Gust SpeedMPH,PrecipitationIn,Events,Conditions,WindDirDegrees,DateUTC
12:56 AM,73.9,71.1,91,30.05,6.0,Calm,Calm,-,N/A,,Clear,0,2013-09-10 05:56:00
1:56 AM,73.9,71.1,91,30.06,5.0,SE,3.5,-,N/A,,Clear,140,2013-09-10 06:56:00
2:56 AM,73.9,70.0,87,30.05,5.0,Calm,Calm,-,N/A,,Clear,0,2013-09-10 07:56:00
3:56 AM,72.0,69.1,91,30.05,4.0,Calm,Calm,-,N/A,,Clear,0,2013-09-10 08:56:00
4:56 AM,72.0,70.0,93,30.07,4.0,Calm,Calm,-,N/A,,Clear,0,2013-09-10 09:56:00
5:56 AM,72.0,70.0,93,30.10,5.0,Calm,Calm,-,N/A,,Clear,0,2013-09-10 10:56:00
6:56 AM,72.0,69.1,91,30.11,3.0,Calm,Calm,-,N/A,,Clear,0,2013-09-10 11:56:00
7:05 AM,71.6,69.8,94,30.13,2.5,Calm,Calm,-,N/A,,Clear,0,2013-09-10 12:05:00
7:16 AM,73.4,69.8,88,30.13,3.0,Calm,Calm,-,N/A,,Clear,0,2013-09-10 12:16:00
7:56 AM,75.0,71.1,87,30.13,5.0,East,3.5,-,N/A,,Clear,90,2013-09-10 12:56:00
8:56 AM,79.0,71.1,77,30.14,9.0,ESE,6.9,-,N/A,,Clear,120,2013-09-10 13:56:00
9:56 AM,82.9,71.1,67,30.15,10.0,SE,6.9,-,N/A,,Clear,130,2013-09-10 14:56:00
10:56 AM,86.0,70.0,59,30.15,10.0,ESE,10.4,-,N/A,,Clear,110,2013-09-10 15:56:00
11:56 AM,88.0,68.0,51,30.15,10.0,ESE,5.8,-,N/A,,Clear,110,2013-09-10 16:56:00
12:56 PM,91.0,68.0,47,30.14,10.0,East,10.4,-,N/A,,Partly Cloudy,100,2013-09-10 17:56:00
1:56 PM,91.9,66.0,42,30.12,10.0,ESE,4.6,-,N/A,,Mostly Cloudy,120,2013-09-10 18:56:00
2:56 PM,90.0,64.0,42,30.10,10.0,ENE,10.4,-,N/A,,Mostly Cloudy,70,2013-09-10 19:56:00
3:56 PM,91.0,64.9,42,30.09,10.0,East,8.1,-,N/A,,Partly Cloudy,90,2013-09-10 20:56:00
4:56 PM,89.1,63.0,42,30.08,10.0,East,9.2,-,N/A,,Partly Cloudy,100,2013-09-10 21:56:00
5:56 PM,87.1,64.9,48,30.09,10.0,ESE,5.8,-,N/A,,Clear,110,2013-09-10 22:56:00
6:56 PM,82.0,66.0,58,30.09,10.0,East,4.6,-,N/A,,Clear,100,2013-09-10 23:56:00
7:56 PM,79.0,68.0,69,30.11,10.0,East,3.5,-,N/A,,Clear,90,2013-09-11 00:56:00
8:56 PM,77.0,68.0,74,30.13,10.0,Calm,Calm,-,N/A,,Clear,0,2013-09-11 01:56:00
9:56 PM,75.0,68.0,79,30.14,10.0,Calm,Calm,-,N/A,,Clear,0,2013-09-11 02:56:00
10:56 PM,73.0,68.0,84,30.14,10.0,Calm,Calm,-,N/A,,Clear,0,2013-09-11 03:56:00
11:56 PM,71.1,68.0,90,30.13,10.0,Calm,Calm,-,N/A,,Clear,0,2013-09-11 04:56:00